Theta_e
293 293 292 292 292 292 292 292 291 291 291 291 290 290 290 290 291 290 290 290 290 290 289 289 288 288 288 287 287 285 285 284 284 284 284 283 282 282 282 281 281 280 280 279 279 278 278 278 278 277 277 277 276 276 276 275 275 275 275 275 275 275
293 293 292 291 291 291 291 291 290 290 291 290 290 290 290 289 289 289 289 290 290 290 289 289 289 288 288 287 286 285 284 284 284 283 282 282 282 282 281 281 280 280 279 279 278 278 278 277 277 277 276 276 276 276 275 275 275 274 274 274 275 275
293 291 290 289 288 288 288 289 290 291 290 290 290 290 289 289 290 289 290 290 289 289 288 288 288 287 287 286 285 285 284 284 284 283 283 281 281 281 281 280 280 280 279 279 278 278 277 277 276 276 276 276 275 275 275 274 274 274 274 274 273 273
294 290 288 286 286 287 288 289 289 288 289 290 290 290 289 289 289 289 289 289 289 288 288 288 287 287 286 285 285 284 284 283 283 283 281 281 281 281 280 280 280 279 279 278 278 277 277 277 276 276 276 275 275 274 274 274 274 273 273 273 272 272
291 289 288 289 289 290 288 287 288 289 289 289 289 289 289 290 290 289 289 289 288 288 288 288 286 286 285 285 284 284 284 283 283 282 281 281 280 280 280 280 279 279 278 278 277 277 276 276 276 276 275 275 275 274 273 273 273 273 272 272 272 272
289 289 289 290 289 288 288 289 289 289 289 289 289 289 289 289 289 289 288 288 288 288 287 287 286 285 285 284 284 284 284 283 282 282 281 281 280 279 279 279 279 278 278 277 277 276 276 276 275 275 275 275 274 274 273 273 273 273 273 272 272 272
290 292 292 292 291 290 290 289 289 289 289 289 289 289 290 290 290 289 288 288 287 287 287 286 285 284 284 284 284 284 283 282 282 281 280 280 279 279 278 278 278 277 277 277 276 276 275 275 275 274 274 274 274 273 273 273 272 272 272 272 273 273
291 291 291 291 291 291 291 290 290 290 289 289 289 289 289 289 289 289 288 288 287 286 286 285 285 285 284 284 284 284 283 282 281 280 280 279 279 278 278 278 277 277 277 276 276 275 275 275 274 274 274 273 273 273 272 272 272 272 272 272 273 273
289 291 291 292 292 291 291 291 290 290 289 289 289 289 289 289 288 288 288 287 286 286 286 285 285 285 285 285 284 284 282 281 280 280 279 279 278 278 277 277 276 276 276 276 275 275 274 274 274 273 273 272 272 272 272 272 272 271 272 272 272 272
294 292 292 292 292 292 291 291 290 290 290 289 289 288 288 288 287 287 287 287 286 286 286 286 286 285 285 284 284 283 282 281 279 279 279 278 278 277 277 276 276 276 275 275 274 274 274 273 273 272 272 272 271 271 272 271 271 271 271 271 272 272
294 294 292 292 291 291 291 291 290 289 289 289 289 288 288 288 287 287 287 286 286 286 286 286 285 285 284 283 282 281 280 280 279 279 278 277 277 277 277 276 276 275 274 273 273 273 273 273 272 272 272 271 271 271 271 271 271 271 271 271 272 272
292 292 293 292 291 291 291 291 290 289 289 289 289 288 287 287 286 286 286 286 286 286 286 285 284 284 283 282 281 280 280 279 278 278 277 277 277 276 276 275 275 274 274 273 272 272 272 272 272 274 277 275 272 271 271 271 271 271 271 271 271 271
292 293 293 293 293 293 293 293 292 291 289 289 288 287 287 287 286 286 286 286 286 286 285 284 283 282 281 281 281 279 278 278 277 277 276 276 275 275 274 274 274 273 273 273 272 272 272 272 272 277 279 279 277 272 271 271 272 272 272 272 271 271
291 291 292 292 293 294 295 294 292 290 289 289 288 288 287 286 286 286 286 286 286 285 284 283 282 281 281 280 279 278 278 277 276 275 275 275 274 274 273 273 273 273 273 273 272 272 272 272 276 279 280 280 279 276 272 272 272 272 272 272 272 273
290 291 292 292 293 294 294 293 292 291 290 288 288 287 285 285 285 286 285 285 284 284 283 282 281 280 280 279 279 277 276 276 275 275 274 274 274 273 273 273 273 272 273 272 272 271 272 272 277 280 281 281 280 278 275 272 272 272 273 273 274 274
289 290 290 291 291 292 293 292 291 292 291 288 284 284 285 285 285 285 285 284 283 283 282 281 280 280 279 278 277 276 276 275 275 275 275 274 273 273 273 273 272 272 272 272 272 271 271 271 276 280 281 281 281 280 276 272 273 274 275 274 274 275
288 289 289 290 291 291 292 291 291 290 289 286 285 284 284 284 284 284 284 283 283 282 281 281 280 279 278 277 277 276 275 275 275 275 274 274 273 273 273 272 272 272 272 271 271 271 271 270 277 281 282 282 282 282 279 274 275 275 275 275 275 275
286 287 288 289 290 290 291 291 291 289 289 284 284 283 284 284 284 284 283 282 282 281 281 280 279 279 278 277 276 275 275 275 275 275 274 274 273 273 273 272 272 271 271 271 270 270 269 270 278 281 282 282 282 282 277 275 275 275 275 275 275 275
286 287 288 288 289 289 289 288 287 287 286 282 283 282 282 283 283 283 283 283 282 282 281 280 279 278 277 276 276 275 275 275 275 275 274 273 273 273 272 272 271 271 270 270 270 270 270 270 277 281 282 282 282 281 276 276 275 275 274 274 274 273
287 288 288 288 288 288 285 284 284 283 283 282 280 280 281 282 283 283 283 283 282 281 280 280 279 278 277 276 275 275 276 275 275 275 274 273 272 272 272 272 271 271 270 270 270 270 269 269 276 281 281 281 281 279 275 275 274 273 273 272 272 272
286 287 288 289 288 288 283 281 280 280 280 279 279 278 279 281 282 282 282 283 282 281 280 279 279 278 277 276 276 276 276 275 275 274 273 273 273 272 272 271 270 270 270 270 270 272 270 269 275 281 281 281 281 278 275 274 273 272 271 271 270 272
286 287 287 288 287 286 283 281 281 280 279 278 276 277 279 280 281 282 281 280 279 279 278 278 278 278 277 277 277 276 276 275 274 273 272 272 272 271 271 270 270 269 269 269 269 270 270 269 271 277 280 280 281 280 274 273 272 270 270 270 270 270
287 286 287 288 287 285 284 281 282 282 281 278 277 278 279 280 280 280 279 279 278 278 278 278 279 278 278 277 276 276 275 274 273 272 271 271 271 270 270 269 269 268 268 268 269 269 268 268 270 275 280 280 280 280 276 273 272 271 270 270 270 271
286 287 287 288 288 286 283 282 283 283 281 280 281 280 279 278 278 278 278 278 278 277 277 278 278 278 277 276 276 274 274 273 273 272 271 271 270 269 269 269 268 267 267 267 268 268 268 270 272 272 278 279 280 280 278 273 272 272 271 270 270 271
285 286 286 287 287 286 284 282 283 284 283 283 284 280 279 277 277 277 277 277 277 276 276 276 277 277 276 275 275 274 273 272 271 271 271 270 269 269 268 267 267 266 266 266 266 267 268 269 271 274 275 279 280 280 279 276 275 276 272 271 270 272
285 285 286 287 287 287 285 283 283 284 283 285 284 281 278 277 277 277 277 276 276 275 275 275 275 275 274 274 274 273 272 271 270 270 270 270 269 268 267 267 267 266 266 265 266 266 267 269 270 273 276 277 280 280 280 278 277 277 273 273 272 273
284 285 285 286 286 286 286 284 283 283 283 286 283 282 279 277 276 276 275 274 274 275 274 274 274 274 273 273 273 272 271 270 269 269 269 269 269 268 267 267 266 265 266 265 265 266 267 268 269 271 274 277 278 279 279 278 278 277 277 274 273 272
284 284 283 284 285 285 286 285 284 283 285 284 281 280 279 277 276 275 275 275 274 274 273 273 273 273 272 272 272 272 271 270 269 269 268 268 268 268 267 267 266 266 266 266 266 266 266 267 268 270 272 274 276 277 278 278 278 277 277 274 272 273
281 281 282 282 283 284 285 285 286 285 285 284 282 279 278 277 276 276 275 274 274 273 273 273 272 272 271 271 271 271 271 269 269 269 268 268 268 267 267 267 266 266 266 266 266 266 267 267 268 269 270 271 272 273 274 275 275 276 275 273 271 271
280 280 280 281 282 283 284 285 285 286 286 285 283 278 277 276 276 276 275 274 273 272 272 272 270 270 270 270 271 270 270 269 269 269 268 268 268 268 267 266 266 266 266 266 267 266 266 266 267 267 268 269 270 270 271 272 271 271 269 269 269 268
278 279 279 280 281 282 283 283 285 285 285 285 283 278 277 276 275 275 275 274 272 271 271 271 271 271 271 270 270 270 270 269 269 269 269 270 270 270 269 267 267 267 268 268 268 266 265 266 266 267 271 269 272 270 270 270 269 269 268 270 271 265
277 277 277 278 279 280 281 282 283 284 285 284 282 278 277 277 276 274 274 273 272 271 270 270 270 270 270 270 269 269 269 270 272 271 269 269 272 274 274 273 269 269 269 269 269 268 267 266 267 272 274 274 274 274 274 273 273 272 270 272 273 266
275 275 276 276 278 278 279 280 281 282 283 284 282 278 277 277 276 274 274 271 271 271 270 270 270 269 269 269 269 269 268 267 270 273 273 272 272 273 274 275 274 274 273 270 268 270 271 271 273 274 275 275 275 275 275 275 274 274 274 273 267 261
273 273 274 275 275 276 276 277 278 279 280 282 282 279 277 276 276 275 274 273 271 270 269 269 269 269 268 268 268 268 267 267 266 268 273 274 273 274 275 275 275 275 275 274 271 270 269 273 275 276 276 276 276 276 276 275 275 275 275 272 270 258
271 271 272 272 272 272 272 272 273 275 276 278 279 278 276 276 276 276 276 274 272 270 269 269 268 268 268 267 267 266 267 266 266 266 267 270 274 275 275 275 275 275 275 275 274 274 273 274 276 277 277 277 277 277 276 276 275 275 274 271 262 258
269 268 268 268 268 269 269 270 271 272 274 275 277 277 277 277 277 276 277 276 273 270 269 268 268 268 267 267 267 267 267 267 267 267 267 267 268 271 273 276 276 276 276 275 275 275 275 276 277 277 277 277 277 276 276 275 272 274 272 266 257 257
266 266 266 267 268 268 268 268 269 271 272 273 274 275 276 276 277 277 275 272 272 271 270 269 268 268 267 267 267 266 266 267 268 268 268 267 268 268 269 270 272 275 276 273 274 276 277 277 278 278 277 277 276 276 276 274 268 263 259 257 255 256
264 264 264 265 265 265 265 266 267 269 270 272 273 274 275 276 276 276 276 275 272 271 270 269 269 268 267 267 267 267 267 267 268 268 268 268 269 269 269 270 271 272 275 276 276 277 277 278 278 277 277 276 276 275 274 264 261 259 257 256 255 254
Wind_Speed
11 12 13 13 11 10 12 12 12 11 11 13 14 16 18 15 11 10 10 11 12 13 17 18 17 14 13 12 10 9 12 14 13 13 13 9 10 11 12 12 13 12 12 11 11 10 11 10 10 9 9 8 7 7 7 6 7 6 6 5 5 5
10 11 12 13 15 13 11 11 10 12 14 12 13 13 11 11 14 15 16 17 16 15 14 14 15 15 14 13 12 12 14 14 13 13 12 14 11 11 13 13 14 14 14 12 12 11 10 10 9 9 8 8 7 8 7 7 7 7 7 6 5 5
10 9 7 6 4 5 6 8 13 14 9 11 13 16 16 15 16 15 16 14 16 15 16 16 16 16 14 12 13 13 13 11 12 13 12 10 13 12 13 14 14 14 14 13 12 13 12 11 10 9 9 8 8 8 8 8 8 8 6 6 5 4
11 6 3 3 5 6 9 11 8 8 13 16 14 12 12 15 15 15 17 16 16 17 17 17 13 13 12 14 13 14 13 13 13 13 11 14 13 12 13 13 12 12 13 13 13 12 11 11 11 10 10 10 10 9 7 8 8 7 6 6 6 5
6 4 6 7 10 11 9 7 10 13 15 14 12 14 17 18 19 17 15 14 14 16 15 14 12 12 14 15 13 14 14 13 12 11 15 14 13 12 12 13 12 13 13 12 13 12 12 12 12 11 11 10 10 10 8 8 8 8 8 8 7 7
5 5 6 10 10 9 10 9 9 10 11 14 14 17 19 16 15 14 14 14 15 15 13 13 12 13 14 15 15 16 14 12 11 11 13 13 12 14 12 12 13 12 13 13 13 13 12 12 11 10 10 10 10 10 10 9 9 8 8 8 7 7
8 10 9 9 10 10 10 11 12 13 15 13 14 17 18 17 14 13 14 14 15 14 14 14 13 14 15 16 14 16 14 13 12 11 13 12 13 13 12 12 11 12 13 13 14 13 12 12 12 12 10 9 9 10 9 9 9 8 8 8 8 7
8 8 9 11 11 10 10 11 12 14 14 15 15 15 13 14 13 14 14 14 14 14 15 15 14 16 18 18 16 16 15 14 13 13 11 13 14 13 13 15 13 13 14 12 12 12 12 11 11 11 11 10 9 9 8 9 9 9 8 8 7 7
12 13 11 10 8 8 9 10 13 13 14 15 14 14 13 13 12 13 13 14 14 14 15 15 17 18 18 17 16 13 12 13 13 13 14 12 14 15 14 13 14 12 13 12 11 12 12 11 10 10 10 10 10 10 10 10 9 8 7 7 7 7
15 11 10 9 10 9 10 11 12 13 14 16 14 14 13 10 11 13 15 14 15 16 17 17 18 17 16 13 12 12 13 12 12 13 12 11 13 14 15 15 15 12 11 11 11 11 10 11 11 10 10 10 11 11 10 10 9 8 7 7 7 7
13 14 12 11 9 10 13 12 12 11 11 12 12 10 13 12 12 14 14 14 16 17 17 16 13 11 10 11 11 12 13 13 13 12 12 12 12 11 13 13 13 13 12 10 11 11 11 11 12 11 12 12 12 10 10 10 9 9 9 8 8 8
13 14 14 13 13 14 14 13 13 13 15 15 14 12 12 10 14 14 14 15 17 16 15 13 12 12 12 13 14 14 13 13 13 13 13 13 13 12 11 12 12 13 14 14 12 11 11 11 10 13 20 16 12 12 10 9 10 9 9 8 8 7
14 15 15 15 16 16 16 16 15 13 13 13 10 12 12 12 15 14 14 17 17 15 13 12 12 12 14 14 13 12 13 14 13 13 13 13 12 13 13 13 14 13 13 14 14 14 12 11 10 22 23 23 22 14 11 10 9 9 9 8 8 8
14 14 15 16 17 18 17 16 14 12 14 13 12 13 11 12 13 14 16 17 14 12 13 13 13 13 14 13 14 14 14 13 13 13 13 13 13 13 12 14 15 14 13 12 13 14 14 13 16 25 24 23 23 18 11 9 8 8 8 8 8 7
15 15 17 16 17 18 17 15 14 14 15 12 15 9 9 12 14 15 15 13 12 13 13 12 14 15 14 15 14 13 13 14 14 14 14 16 14 12 14 15 14 14 14 14 15 14 13 11 19 23 24 23 23 22 15 8 8 8 9 9 9 8
15 16 16 16 17 17 16 13 11 13 11 8 3 7 11 12 12 12 13 11 11 12 12 13 13 14 14 13 12 13 14 15 17 16 14 12 12 14 14 13 15 14 14 14 14 13 12 11 18 23 23 22 23 22 16 8 9 9 8 9 8 8
16 17 19 19 19 17 16 15 13 12 11 5 7 9 10 12 12 12 12 12 11 10 11 13 13 13 12 13 14 14 15 16 14 14 14 14 16 16 16 16 15 14 13 12 11 11 11 9 19 22 22 21 22 22 16 8 8 7 7 8 8 8
16 15 16 16 17 17 15 14 13 10 12 6 7 7 9 10 11 12 10 11 12 13 14 14 14 14 13 14 14 15 15 15 16 17 14 13 11 10 10 10 11 13 12 10 10 9 9 8 20 21 21 22 21 22 10 9 8 7 7 8 9 9
14 15 14 15 15 16 14 13 11 9 8 6 7 5 6 7 10 12 12 13 14 14 14 15 15 15 15 15 15 16 16 16 15 13 11 13 13 13 13 13 11 10 11 11 10 10 9 8 17 22 22 22 23 16 8 9 7 7 9 8 8 6
14 15 14 15 16 15 12 12 11 8 6 6 4 4 6 7 12 12 12 14 14 15 14 14 15 16 15 15 18 18 16 14 11 12 12 15 14 14 13 11 10 9 10 12 12 12 11 10 16 23 22 22 23 15 9 8 8 7 6 4 4 3
15 14 15 16 18 18 14 11 9 7 6 5 5 4 5 8 9 6 10 11 9 9 10 11 13 14 16 17 17 15 15 15 14 11 10 10 10 10 9 10 10 10 10 10 11 14 13 10 14 22 21 23 22 16 8 8 8 7 6 5 4 5
14 17 18 17 17 16 15 12 11 9 6 5 4 4 7 5 5 5 6 4 1 4 7 9 11 12 14 15 12 11 12 10 10 12 12 10 9 9 9 9 10 12 10 10 10 11 10 10 9 14 23 22 22 20 10 8 9 9 9 7 6 4
13 13 14 13 13 14 13 11 12 12 9 7 6 8 4 4 4 4 2 0 1 2 4 5 9 12 10 9 11 10 10 10 12 11 12 12 9 9 9 10 9 9 9 9 9 9 9 9 10 13 22 21 23 23 17 9 9 8 8 8 7 7
15 16 16 13 14 12 11 10 13 12 10 9 11 8 5 5 2 0 0 1 2 3 4 4 3 3 5 6 9 10 10 8 8 10 11 9 10 12 11 10 9 9 9 7 8 8 9 10 15 10 20 22 24 23 21 11 10 10 9 8 7 8
14 15 15 14 12 11 9 9 12 12 11 12 11 6 4 3 2 0 1 1 2 2 2 2 3 4 3 5 6 9 10 8 10 10 10 11 11 12 12 11 10 10 10 8 8 7 7 8 11 15 12 22 23 24 21 19 14 19 10 8 8 9
14 14 12 11 11 10 10 9 11 11 11 14 8 6 4 3 1 0 0 1 1 2 2 2 2 2 2 5 6 7 9 9 9 9 10 11 11 11 12 10 10 11 11 10 8 6 5 5 6 14 17 16 23 21 22 21 20 20 11 9 7 6
15 15 15 13 12 11 10 8 9 12 12 12 7 6 4 3 1 0 2 2 3 3 3 4 5 6 6 6 8 9 9 9 10 10 9 10 10 11 12 11 11 9 7 6 8 8 8 6 6 6 14 19 19 21 20 20 20 18 18 9 6 6
13 14 16 16 12 11 10 9 7 11 13 9 6 4 3 3 3 4 5 4 5 6 6 7 5 6 6 8 8 9 9 11 11 11 10 10 10 10 11 12 8 7 7 8 8 9 9 10 7 8 10 12 16 16 20 20 19 17 16 11 7 9
14 16 17 18 14 10 10 11 9 9 11 11 8 4 4 5 6 7 6 7 6 6 7 9 8 8 8 9 8 8 8 9 9 10 11 11 12 12 11 11 10 9 8 9 9 7 8 8 10 9 9 8 8 8 10 12 11 15 13 7 6 7
15 17 18 17 16 13 12 12 12 11 11 11 7 4 4 7 8 9 9 9 8 8 9 9 10 11 9 10 11 11 10 10 11 13 14 16 16 15 14 13 14 14 14 13 12 12 11 12 11 11 11 10 9 8 7 6 7 6 5 6 5 4
15 16 17 18 15 14 13 14 13 12 11 11 8 4 7 9 10 10 9 8 7 9 9 9 10 11 11 11 11 11 12 14 15 15 13 11 10 13 16 16 15 14 14 14 14 13 9 7 12 13 13 13 15 13 10 8 8 7 6 8 10 7
15 17 18 17 15 14 14 14 13 12 11 10 8 5 8 11 9 9 10 8 9 8 8 8 9 10 10 10 11 11 9 7 12 9 9 9 12 15 13 12 12 13 13 14 12 15 19 19 16 20 25 22 22 21 19 16 16 14 11 13 16 10
16 16 18 18 16 15 15 15 14 14 13 12 9 8 10 10 9 9 9 8 9 11 11 10 9 9 8 8 7 7 8 6 7 14 13 8 11 14 15 16 15 16 17 12 12 10 8 10 19 26 25 25 24 23 21 20 19 18 18 16 12 5
15 15 17 17 17 16 15 15 15 15 15 15 13 9 10 11 11 11 11 11 11 11 10 9 9 9 9 8 8 8 8 8 8 7 15 16 14 17 17 17 17 19 20 17 14 12 9 18 25 27 26 25 25 23 22 21 20 20 19 18 13 7
13 13 14 16 17 19 17 18 19 18 17 17 15 10 11 12 13 14 13 11 11 10 11 9 9 10 11 11 11 11 10 11 11 11 9 11 17 19 17 18 18 21 20 20 20 19 18 22 24 27 26 25 25 24 22 22 21 20 19 16 7 6
14 14 17 18 20 19 18 18 19 18 17 16 15 12 12 15 16 16 14 12 12 11 10 11 11 12 12 12 11 11 12 12 11 11 11 10 10 12 14 16 19 21 22 22 22 22 22 25 27 27 25 25 24 23 22 20 15 19 17 11 7 7
18 17 19 21 20 19 19 19 22 20 19 17 15 16 16 17 17 14 16 19 13 10 11 11 11 12 11 11 12 12 12 12 11 11 12 13 14 14 13 12 13 19 23 19 18 21 26 26 26 25 25 25 24 24 24 21 12 10 6 5 4 6
15 19 19 19 18 19 20 22 22 21 15 15 15 17 18 17 15 14 13 11 13 12 10 10 10 11 11 12 12 11 10 10 10 11 11 11 11 11 11 10 10 11 18 26 23 26 26 26 25 24 24 23 23 24 23 11 9 8 7 6 5 5
Wind_Direction
226 214 208 207 205 202 202 198 188 192 202 206 201 202 207 206 205 208 208 203 205 206 205 203 204 206 206 205 199 190 197 194 189 187 191 175 178 177 175 175 176 177 178 176 176 176 178 172 170 165 164 163 156 157 157 162 161 162 165 166 157 164
235 228 215 201 202 200 194 188 189 201 205 198 206 209 199 193 200 200 204 204 204 206 205 204 204 203 202 199 192 195 200 198 188 183 179 188 175 183 176 177 179 178 177 178 174 176 174 172 167 164 160 159 160 160 162 171 167 169 171 168 163 162
239 239 254 244 213 192 184 189 197 204 194 206 206 203 200 202 205 200 210 204 210 206 204 204 202 200 196 192 194 198 200 197 191 188 183 158 185 179 180 183 182 179 177 173 174 175 175 171 168 166 161 163 165 169 170 171 174 172 171 158 163 162
234 220 219 228 208 217 202 199 193 192 198 208 208 208 206 205 208 206 209 204 208 205 207 205 201 197 190 192 193 198 197 195 193 186 167 181 180 176 183 183 179 177 173 173 174 175 174 173 168 167 165 168 170 174 168 171 170 169 164 162 172 171
278 217 201 212 216 212 207 201 200 204 207 204 204 204 213 206 208 207 207 206 206 208 207 203 196 191 192 191 193 199 197 196 191 183 183 179 176 177 180 179 176 175 173 173 174 173 175 174 171 172 171 173 172 170 171 171 171 171 171 175 180 177
265 241 215 216 222 223 215 210 215 217 214 208 204 207 215 212 215 207 205 206 209 207 200 199 193 190 192 194 197 199 196 190 188 187 189 180 170 174 177 172 174 172 175 175 175 177 174 172 172 171 174 172 171 170 171 171 173 175 178 178 177 178
237 231 230 225 226 222 212 208 212 215 218 212 210 214 214 210 209 204 206 205 207 201 199 197 190 193 195 200 198 197 190 187 184 183 187 179 175 174 166 170 170 174 175 179 178 176 175 175 170 170 171 171 171 171 169 172 173 178 178 179 181 183
239 246 237 226 221 217 219 219 218 219 222 220 213 217 215 212 204 205 204 204 203 201 198 196 192 197 199 201 198 194 188 183 181 182 184 183 177 170 172 169 170 176 181 178 177 176 174 172 171 171 170 169 167 167 171 171 175 178 177 180 181 184
235 235 239 237 237 229 224 225 226 225 223 225 219 217 214 211 202 205 204 204 203 201 201 196 199 200 200 198 197 189 181 182 182 179 183 182 178 172 171 174 171 174 176 176 171 175 172 168 167 167 168 169 170 171 172 175 176 176 173 182 181 185
290 286 272 264 251 241 238 231 228 226 222 224 218 213 210 204 197 204 204 202 202 204 202 202 203 202 200 195 186 180 182 177 176 182 179 173 178 179 175 173 174 170 169 172 172 170 165 166 168 169 171 173 174 174 177 175 173 172 176 176 185 186
270 274 271 260 254 251 245 242 237 230 232 234 229 210 210 200 197 204 204 203 206 207 204 203 201 194 186 182 181 178 178 179 177 176 174 177 179 180 176 171 167 163 166 168 170 168 169 172 176 176 175 174 176 176 174 174 172 173 174 178 185 192
250 252 255 255 248 244 246 245 241 231 225 226 220 209 209 185 203 203 203 205 209 207 202 197 188 185 181 179 180 182 177 174 173 173 174 179 178 175 170 167 169 170 171 169 172 173 175 181 182 182 180 177 173 173 172 171 174 172 173 173 180 190
255 255 254 254 253 248 245 243 242 238 232 233 219 212 205 190 204 203 203 209 210 204 193 186 188 179 182 183 178 174 172 174 171 173 174 174 173 173 172 169 170 177 176 175 174 178 183 184 183 183 184 182 179 171 171 169 165 170 172 175 181 191
283 278 269 261 256 254 253 252 248 242 237 227 216 215 195 196 202 202 207 210 203 194 188 188 182 179 181 174 178 176 176 168 169 173 175 173 174 176 171 175 179 176 177 178 181 184 185 185 183 184 185 183 180 175 170 166 166 165 172 178 185 190
323 301 288 280 273 267 261 251 248 243 237 222 221 201 183 197 202 206 209 206 194 193 188 182 180 182 178 181 176 171 166 170 172 174 174 181 179 168 176 181 175 182 181 182 184 188 187 183 183 185 185 184 181 175 168 165 165 168 172 179 184 190
334 329 316 300 291 288 286 285 270 261 251 237 192 169 199 196 207 206 209 199 196 190 186 181 180 183 182 173 167 166 171 173 181 181 179 170 168 178 181 179 182 181 185 187 187 184 182 180 187 187 186 184 181 176 168 167 167 169 173 176 187 191
329 329 329 327 317 304 299 294 284 280 284 238 204 202 195 199 199 203 201 194 194 183 182 181 182 181 173 171 170 171 177 180 178 175 177 176 180 180 182 182 183 186 184 183 181 180 182 183 187 187 185 183 181 179 165 162 165 166 174 183 191 198
325 323 320 318 320 315 308 298 299 301 279 275 235 218 203 198 199 204 194 192 188 187 185 181 181 178 173 171 173 176 180 181 181 181 178 176 180 184 178 184 182 180 179 175 173 174 178 179 191 186 183 181 179 180 163 160 165 167 180 186 187 191
320 320 319 322 326 324 321 315 305 286 279 264 243 231 219 196 202 202 195 198 193 190 185 182 178 177 174 174 175 182 183 182 184 181 173 175 180 179 184 182 178 172 169 170 172 173 175 178 191 185 182 180 178 174 153 164 160 169 170 183 187 194
324 324 328 328 329 333 330 317 307 301 291 286 286 251 229 215 217 209 200 203 196 189 185 182 178 176 175 175 183 185 187 183 178 179 175 179 177 182 182 170 167 169 171 172 176 177 172 181 191 185 183 180 179 168 158 157 155 158 162 158 167 175
325 322 329 336 338 334 334 329 337 353 338 341 338 318 286 254 255 249 227 216 195 188 182 179 179 178 178 183 188 182 178 179 180 172 168 178 176 177 166 169 169 167 171 177 176 178 176 177 189 186 182 179 179 170 152 157 151 155 166 162 173 193
332 335 339 339 333 328 330 334 341 351 353 348 3 318 271 294 322 303 316 332 253 190 182 185 184 184 183 186 178 178 177 164 159 168 172 172 169 167 168 169 171 170 173 170 172 181 172 174 186 185 183 180 180 170 156 152 158 169 168 168 173 192
332 328 326 327 327 332 333 339 342 340 345 348 338 288 300 320 330 349 356 16 170 202 203 200 195 188 187 179 174 167 163 169 170 164 168 167 163 160 165 169 168 166 167 170 172 172 169 177 177 188 184 183 182 175 164 162 166 165 165 167 171 193
327 327 328 330 335 337 340 341 340 334 336 339 317 317 330 333 337 89 86 136 182 190 193 203 210 195 175 163 158 165 169 165 159 164 163 162 162 164 167 167 166 166 164 166 170 171 169 181 186 180 187 184 183 180 169 162 170 168 160 167 180 201
325 325 323 325 329 337 339 345 339 334 333 328 317 334 346 354 6 13 139 134 144 167 186 184 182 165 147 163 165 163 164 158 159 160 163 162 160 164 167 170 170 166 169 166 172 173 170 179 184 187 187 186 186 184 176 171 172 177 169 174 187 195
320 318 316 317 324 330 337 348 335 328 327 313 313 333 347 10 19 70 127 133 113 120 127 126 128 119 128 157 161 167 162 165 165 163 171 168 165 168 171 177 178 175 169 164 164 163 158 172 166 189 189 190 187 186 182 176 176 180 176 177 180 170
318 317 316 321 326 326 325 330 325 320 315 308 323 306 309 322 358 143 189 171 144 136 141 139 156 156 155 164 169 173 173 168 168 170 176 171 176 177 179 180 181 168 154 142 156 157 163 164 166 178 190 191 189 187 186 182 180 182 181 170 155 151
316 316 315 315 322 323 321 315 312 308 302 304 304 270 241 215 220 233 227 202 180 173 158 163 164 164 166 172 182 186 180 176 178 178 175 180 185 183 183 182 176 165 164 166 152 155 157 164 162 177 181 190 186 184 185 186 187 185 181 153 157 166
317 314 313 311 315 318 313 313 306 291 292 294 281 248 214 211 217 224 221 210 198 181 174 178 179 175 175 178 182 187 182 180 184 182 182 185 184 187 190 187 159 169 173 172 168 137 146 147 167 173 177 174 180 176 182 183 184 177 180 169 152 176
312 310 309 307 310 315 311 305 303 300 295 288 276 235 213 222 220 220 217 207 196 190 188 192 182 179 183 188 185 185 186 190 190 190 191 188 189 184 190 186 187 186 181 175 173 168 165 172 175 178 172 172 171 174 174 164 147 147 130 140 156 141
306 304 303 303 306 309 307 302 299 298 293 288 277 219 221 235 233 230 225 211 199 202 195 192 189 193 191 191 195 201 196 189 191 200 206 207 195 194 188 186 193 192 187 178 174 167 150 142 178 186 179 173 173 169 167 158 155 144 150 172 165 119
302 305 305 302 305 305 302 300 300 298 294 284 272 226 231 239 239 233 233 217 209 208 194 203 201 200 198 196 198 198 205 213 213 213 208 204 203 211 215 204 199 189 175 180 186 177 174 181 183 175 173 170 171 175 172 167 163 168 167 193 171 143
305 305 301 300 302 300 299 298 298 297 296 292 271 237 234 235 234 234 234 218 219 210 201 200 201 200 202 201 199 198 197 195 210 216 216 211 205 207 213 206 201 188 186 182 167 174 186 167 163 165 164 168 171 172 172 170 172 171 179 161 125 109
301 301 299 298 298 296 298 297 295 295 293 292 286 254 239 233 229 236 230 220 221 211 203 200 195 190 192 197 193 193 189 190 192 207 215 212 203 202 203 200 187 183 180 179 168 156 150 161 164 164 165 168 171 173 171 170 173 173 166 158 147 121
298 294 292 292 292 293 294 293 288 285 284 284 284 267 248 241 236 237 238 227 217 211 200 195 192 192 192 193 190 192 188 189 188 188 185 203 203 199 198 193 183 178 175 170 167 167 163 162 165 166 168 172 173 169 167 167 167 168 160 142 122 144
298 296 292 287 286 286 286 284 281 280 278 279 282 274 250 249 243 238 241 232 217 206 202 201 196 192 196 196 194 192 189 192 189 185 178 171 174 191 199 196 186 179 172 170 167 166 167 166 164 165 168 170 167 164 162 160 161 156 150 143 149 146
294 288 283 284 286 287 286 282 281 279 281 284 288 285 274 258 250 247 244 241 226 206 209 204 200 199 194 189 191 191 190 190 186 179 179 178 180 179 177 171 173 172 167 167 168 168 166 164 166 167 168 166 167 163 161 152 140 128 97 85 103 143
281 279 281 282 284 284 282 279 276 277 282 283 279 273 267 263 255 249 245 240 225 218 215 205 203 197 194 192 194 189 187 182 179 181 181 181 179 175 166 162 160 158 166 163 162 163 164 166 166 165 164 166 165 165 154 143 158 143 150 140 148 151